TimeEST,TemperatureF,Dew PointF,Humidity,Sea Level PressureIn,VisibilityMPH,Wind Direction,Wind SpeedMPH,Gust SpeedMPH,PrecipitationIn,Events,Conditions,WindDirDegrees,DateUTC
12:15 AM,53.6,42.8,67,29.81,10.0,WSW,3.5,-,N/A,,Unknown,240,2012-11-24 05:15:00
12:35 AM,53.6,42.8,67,29.80,10.0,WSW,6.9,-,N/A,,Unknown,250,2012-11-24 05:35:00
12:55 AM,53.6,42.8,67,29.80,10.0,West,10.4,-,N/A,,Unknown,270,2012-11-24 05:55:00
1:15 AM,53.6,42.8,67,29.80,10.0,West,8.1,-,N/A,,Unknown,280,2012-11-24 06:15:00
1:35 AM,53.6,42.8,67,29.80,10.0,West,5.8,-,N/A,,Unknown,270,2012-11-24 06:35:00
1:55 AM,53.6,42.8,67,29.80,10.0,West,6.9,-,N/A,,Unknown,280,2012-11-24 06:55:00
2:15 AM,53.6,42.8,67,29.80,10.0,West,8.1,-,N/A,,Unknown,280,2012-11-24 07:15:00
2:35 AM,53.6,42.8,67,29.81,10.0,WNW,9.2,-,N/A,,Unknown,290,2012-11-24 07:35:00
2:55 AM,53.6,41.0,62,29.81,10.0,NW,10.4,18.4,N/A,,Unknown,310,2012-11-24 07:55:00
3:15 AM,53.6,41.0,62,29.81,10.0,NW,10.4,16.1,N/A,,Unknown,320,2012-11-24 08:15:00
3:35 AM,53.6,39.2,58,29.80,10.0,NW,9.2,16.1,N/A,,Unknown,320,2012-11-24 08:35:00
3:55 AM,53.6,39.2,58,29.81,10.0,NW,8.1,-,N/A,,Unknown,320,2012-11-24 08:55:00
4:15 AM,53.6,39.2,58,29.81,10.0,NW,4.6,-,N/A,,Unknown,320,2012-11-24 09:15:00
4:35 AM,51.8,39.2,62,29.82,10.0,NW,6.9,-,N/A,,Unknown,320,2012-11-24 09:35:00
4:55 AM,51.8,39.2,62,29.83,10.0,NW,5.8,-,N/A,,Unknown,310,2012-11-24 09:55:00
5:15 AM,51.8,37.4,58,29.83,10.0,NW,6.9,-,N/A,,Unknown,320,2012-11-24 10:15:00
5:35 AM,51.8,35.6,54,29.84,10.0,NW,6.9,16.1,N/A,,Unknown,320,2012-11-24 10:35:00
5:55 AM,50.0,35.6,58,29.85,10.0,NW,9.2,-,N/A,,Unknown,320,2012-11-24 10:55:00
6:15 AM,50.0,33.8,54,29.86,10.0,NNW,9.2,16.1,N/A,,Unknown,330,2012-11-24 11:15:00
6:35 AM,50.0,35.6,58,29.88,10.0,NNW,10.4,-,N/A,,Unknown,330,2012-11-24 11:35:00
6:55 AM,50.0,33.8,54,29.88,10.0,NNW,12.7,18.4,N/A,,Unknown,340,2012-11-24 11:55:00
7:15 AM,50.0,35.6,58,29.89,10.0,North,13.8,23.0,N/A,,Unknown,10,2012-11-24 12:15:00
7:55 AM,48.2,35.6,62,29.92,10.0,North,15.0,23.0,N/A,,Unknown,10,2012-11-24 12:55:00
8:15 AM,48.2,33.8,58,29.93,10.0,North,16.1,28.8,N/A,,Unknown,10,2012-11-24 13:15:00
8:55 AM,46.4,32.0,57,29.93,10.0,North,18.4,26.5,N/A,,Unknown,10,2012-11-24 13:55:00
9:15 AM,46.4,32.0,57,29.94,10.0,North,17.3,31.1,N/A,,Unknown,10,2012-11-24 14:15:00
9:35 AM,46.4,30.2,53,29.95,10.0,North,18.4,27.6,N/A,,Unknown,10,2012-11-24 14:35:00
9:55 AM,46.4,30.2,53,29.96,10.0,North,15.0,26.5,N/A,,Unknown,10,2012-11-24 14:55:00
10:15 AM,46.4,30.2,53,29.95,10.0,North,18.4,25.3,N/A,,Unknown,10,2012-11-24 15:15:00
10:35 AM,46.4,28.4,50,29.95,10.0,North,16.1,26.5,N/A,,Unknown,360,2012-11-24 15:35:00
10:55 AM,46.4,28.4,50,29.95,10.0,North,17.3,26.5,N/A,,Unknown,10,2012-11-24 15:55:00
11:15 AM,46.4,28.4,50,29.95,10.0,North,13.8,24.2,N/A,,Unknown,350,2012-11-24 16:15:00
11:35 AM,46.4,26.6,46,29.94,10.0,North,15.0,19.6,N/A,,Unknown,360,2012-11-24 16:35:00
11:55 AM,46.4,28.4,50,29.94,10.0,North,11.5,21.9,N/A,,Unknown,360,2012-11-24 16:55:00
12:15 PM,46.4,28.4,50,29.93,10.0,NNW,11.5,19.6,N/A,,Unknown,340,2012-11-24 17:15:00
12:35 PM,46.4,28.4,50,29.93,10.0,North,11.5,18.4,N/A,,Unknown,10,2012-11-24 17:35:00
12:55 PM,46.4,28.4,50,29.93,10.0,North,13.8,21.9,N/A,,Unknown,10,2012-11-24 17:55:00
1:15 PM,46.4,26.6,46,29.93,10.0,North,9.2,-,N/A,,Unknown,350,2012-11-24 18:15:00
1:35 PM,46.4,26.6,46,29.93,10.0,North,10.4,16.1,N/A,,Unknown,10,2012-11-24 18:35:00
1:55 PM,46.4,26.6,46,29.93,10.0,North,10.4,-,N/A,,Unknown,350,2012-11-24 18:55:00
2:15 PM,46.4,23.0,40,29.93,10.0,North,6.9,-,N/A,,Unknown,350,2012-11-24 19:15:00
2:35 PM,46.4,24.8,43,29.93,10.0,NW,6.9,-,N/A,,Unknown,320,2012-11-24 19:35:00
2:55 PM,46.4,24.8,43,29.93,10.0,North,9.2,-,N/A,,Unknown,350,2012-11-24 19:55:00
3:15 PM,46.4,26.6,46,29.94,10.0,North,6.9,-,N/A,,Unknown,360,2012-11-24 20:15:00
3:55 PM,46.4,24.8,43,29.95,10.0,Calm,Calm,-,N/A,,Unknown,0,2012-11-24 20:55:00
4:15 PM,44.6,23.0,43,29.95,10.0,NW,8.1,-,N/A,,Unknown,320,2012-11-24 21:15:00
4:35 PM,44.6,23.0,43,29.96,10.0,NW,5.8,-,N/A,,Unknown,320,2012-11-24 21:35:00
4:55 PM,44.6,23.0,43,29.96,10.0,Calm,Calm,-,N/A,,Unknown,0,2012-11-24 21:55:00
5:15 PM,44.6,23.0,43,29.97,10.0,NW,6.9,-,N/A,,Unknown,310,2012-11-24 22:15:00
5:35 PM,44.6,23.0,43,29.99,10.0,NW,4.6,-,N/A,,Unknown,320,2012-11-24 22:35:00
5:55 PM,44.6,23.0,43,30.00,10.0,NW,6.9,-,N/A,,Unknown,320,2012-11-24 22:55:00
6:15 PM,44.6,23.0,43,30.00,10.0,NNW,8.1,-,N/A,,Unknown,340,2012-11-24 23:15:00
6:35 PM,42.8,24.8,49,30.01,10.0,North,8.1,-,N/A,,Unknown,350,2012-11-24 23:35:00
6:55 PM,44.6,23.0,43,30.02,10.0,North,8.1,-,N/A,,Unknown,350,2012-11-24 23:55:00
7:15 PM,44.6,21.2,39,30.02,10.0,NNW,8.1,-,N/A,,Unknown,340,2012-11-25 00:15:00
7:35 PM,42.8,23.0,46,30.02,10.0,North,8.1,-,N/A,,Unknown,350,2012-11-25 00:35:00
7:55 PM,42.8,23.0,46,30.03,10.0,North,10.4,18.4,N/A,,Unknown,360,2012-11-25 00:55:00
8:15 PM,42.8,23.0,46,30.03,10.0,North,9.2,-,N/A,,Unknown,350,2012-11-25 01:15:00
8:35 PM,42.8,21.2,42,30.04,10.0,NNW,8.1,-,N/A,,Unknown,340,2012-11-25 01:35:00
8:55 PM,42.8,23.0,46,30.04,10.0,North,9.2,-,N/A,,Unknown,350,2012-11-25 01:55:00
9:15 PM,42.8,23.0,46,30.04,10.0,NNW,4.6,-,N/A,,Unknown,340,2012-11-25 02:15:00
9:35 PM,42.8,23.0,46,30.05,10.0,NNW,4.6,-,N/A,,Unknown,340,2012-11-25 02:35:00
9:55 PM,42.8,21.2,42,30.06,10.0,NNW,4.6,-,N/A,,Unknown,330,2012-11-25 02:55:00
10:15 PM,42.8,21.2,42,30.06,10.0,NNW,3.5,-,N/A,,Unknown,340,2012-11-25 03:15:00
10:35 PM,42.8,19.4,39,30.06,10.0,North,6.9,-,N/A,,Unknown,350,2012-11-25 03:35:00
10:55 PM,42.8,21.2,42,30.06,10.0,North,8.1,-,N/A,,Unknown,350,2012-11-25 03:55:00
11:15 PM,42.8,23.0,46,30.07,10.0,NNW,9.2,20.7,N/A,,Unknown,330,2012-11-25 04:15:00
11:35 PM,41.0,28.4,61,30.07,10.0,North,9.2,-,N/A,,Unknown,350,2012-11-25 04:35:00
11:55 PM,41.0,30.2,65,30.07,10.0,North,8.1,16.1,N/A,,Unknown,350,2012-11-25 04:55:00